Location: Amon Carter Post Office
(32.8281°N, 97.0484°W)
Time: 06:59:01
(UTC+00:00)

CZ-2C R/B - Pass Details

Date: 07 July 2022
Orbit: 783 x 871 km, 98.2° (Epoch: 11 August)

Event Time Altitude Azimuth Distance (km) Brightness Sun altitude
Rises 10:25:57 0° 149° (SSE) 3,410 5.8 -11.6°
Reaches altitude 10° 10:28:24 10° 143° (SE) 2,487 5.2 -11.2°
Maximum altitude 10:33:37 44° 72° (ENE) 1,177 4.1 -10.3°
Drops below altitude 10° 10:38:55 10° 2° (N) 2,522 5.7 -9.4°
Sets 10:41:25 0° 356° (N) 3,463 6.3 -9.0°
